SCP
1 2 2 2 2 2 2 2 2 2 2 2 2 2 1 1 1 1 1 0 0 0 0 0 0 0 0 0 0 0 0 0 0 0 0 0 0 0 0 0 0 0 0
1 2 3 3 3 3 3 2 2 2 2 2 2 2 1 1 1 1 1 0 0 0 0 0 0 0 0 0 0 0 0 0 0 0 0 0 0 0 0 0 0 0 0
2 2 3 3 3 3 3 3 2 2 2 2 2 2 1 1 1 1 1 1 0 0 0 0 0 0 0 0 0 0 0 0 0 0 0 0 0 0 0 0 0 0 0
2 2 2 3 3 3 3 3 2 2 2 2 2 1 1 1 1 1 1 1 0 0 0 0 0 0 0 0 0 0 0 0 0 0 0 0 0 0 0 0 0 0 0
2 2 2 2 2 2 2 3 2 2 2 2 1 1 1 1 1 1 1 1 0 0 0 0 0 0 0 0 0 0 0 0 0 0 0 0 0 0 0 0 0 0 0
2 2 2 2 2 2 2 2 2 2 2 2 1 1 1 1 1 1 1 1 1 0 0 0 0 0 0 0 0 0 0 0 0 0 0 0 0 0 0 0 0 0 0
2 2 2 2 2 2 2 2 2 2 2 1 1 1 1 1 1 1 1 1 1 1 1 0 0 1 1 0 0 0 0 0 0 0 0 0 0 0 0 0 0 0 0
3 3 3 3 2 2 2 2 2 2 2 1 1 1 1 1 1 1 1 1 1 1 1 1 1 1 1 1 0 0 0 0 0 0 0 0 0 0 0 0 0 0 0
3 4 3 3 3 2 2 3 2 2 2 2 2 2 1 1 1 1 1 1 1 1 1 1 1 1 1 1 1 0 0 0 0 0 0 0 0 0 0 0 0 0 0
4 4 4 4 3 3 3 3 3 3 3 2 2 2 2 2 1 1 1 1 1 1 1 1 1 1 1 1 1 1 0 0 0 0 0 0 0 1 1 1 1 1 1
4 4 5 4 4 3 3 4 4 4 3 3 3 2 2 2 2 2 1 1 1 1 1 1 1 1 1 1 1 1 1 1 0 0 0 0 0 1 1 1 1 1 1
3 4 4 4 4 3 3 3 4 4 4 4 3 3 3 2 2 2 2 1 1 1 1 1 1 1 1 1 1 1 1 1 1 1 1 1 1 1 1 1 1 1 1
3 3 3 3 3 3 3 3 3 4 4 4 4 4 3 3 3 2 2 2 3 3 2 1 1 1 1 1 1 2 1 1 1 1 1 1 1 1 1 1 1 1 1
3 3 3 3 2 2 2 2 2 3 3 4 4 4 4 3 3 2 2 2 4 5 4 1 1 2 2 2 2 2 1 1 1 1 1 1 1 1 1 1 1 1 1
3 3 4 3 2 2 2 2 2 3 3 3 3 3 3 3 3 3 2 2 3 3 3 1 1 2 2 2 2 2 2 1 1 1 1 1 1 2 2 2 2 1 1
3 4 4 3 2 2 2 2 2 2 3 2 2 3 3 3 3 3 2 2 1 1 1 1 1 2 2 2 2 2 1 1 1 1 1 1 2 2 2 2 2 2 1
4 4 3 2 2 2 1 1 2 2 2 2 2 2 2 2 2 2 2 2 1 1 1 1 2 2 2 2 2 2 2 2 2 1 1 2 2 2 2 2 2 2 2
5 4 3 2 2 1 1 1 1 1 1 1 1 1 1 1 2 2 2 2 2 1 1 2 2 2 2 2 2 2 2 2 2 2 2 2 2 2 2 2 2 2 2
3 3 3 3 2 1 1 1 1 1 1 1 1 1 1 1 1 1 2 3 2 1 1 1 2 2 2 2 2 2 2 2 2 2 2 2 2 2 2 2 2 2 2
2 2 3 3 2 1 1 1 1 1 1 1 1 0 0 0 1 1 1 2 1 1 1 1 1 1 1 1 1 1 1 2 1 1 1 2 1 1 1 1 2 2 2
1 2 3 3 2 1 1 1 1 1 1 1 1 1 0 0 0 0 0 0 0 0 1 1 1 1 1 1 1 1 1 1 1 1 1 1 1 1 1 1 2 2 3
1 1 2 2 2 1 1 1 1 1 1 1 1 1 1 0 0 0 0 0 0 0 0 0 0 0 0 1 1 1 1 1 1 1 1 1 1 1 1 1 2 2 3
0 1 1 1 1 0 0 0 0 0 0 0 0 0 0 0 0 0 0 0 0 0 0 0 0 0 0 0 1 1 1 1 1 0 1 1 1 1 1 2 2 2 2
0 0 0 0 0 0 0 0 0 0 0 0 0 0 0 0 0 0 0 0 0 0 0 0 0 0 0 0 0 1 1 1 0 0 0 0 1 1 1 1 2 2 2
0 0 0 0 0 0 0 0 0 0 0 0 0 0 0 0 0 0 0 0 0 0 0 0 0 0 0 0 0 0 0 0 0 0 0 0 0 1 1 1 2 2 2
0 0 0 0 0 0 0 0 0 0 0 0 0 0 0 0 0 0 0 0 0 0 0 0 0 0 0 0 0 0 0 0 0 0 0 0 0 1 1 2 2 2 2
Wind_Speed
7 9 16 18 18 18 18 18 18 18 18 17 17 17 17 17 16 15 14 13 12 11 10 9 9 9 10 10 10 11 12 12 13 13 13 13 14 14 14 15 15 12 17
12 12 17 17 18 18 18 18 17 17 17 17 17 17 16 16 15 15 14 13 12 11 10 9 9 9 10 10 11 12 12 12 12 13 13 12 13 14 14 15 14 11 16
14 12 15 17 17 18 17 17 17 17 17 17 16 16 16 15 15 14 13 13 12 11 10 10 9 10 10 11 11 12 12 12 12 12 11 8 10 13 14 15 15 15 15
14 10 12 18 17 17 17 17 16 16 16 16 15 15 15 14 14 14 13 12 11 11 10 10 10 10 10 10 11 11 11 12 12 11 6 6 7 12 13 15 15 15 15
11 9 12 19 17 17 16 16 15 15 15 15 15 14 14 13 13 13 12 11 11 10 10 10 10 10 10 10 10 10 11 11 11 8 5 5 5 11 13 14 14 15 14
10 8 11 18 17 16 16 15 15 14 14 14 14 13 13 13 12 12 12 11 11 10 10 10 10 10 10 10 9 9 10 10 8 5 4 4 5 11 13 13 14 14 14
10 7 9 17 16 16 15 15 14 14 13 13 13 12 12 12 12 11 11 11 10 10 10 10 10 10 10 9 9 9 8 9 5 4 4 5 6 10 13 13 14 14 14
11 8 8 15 16 15 15 14 13 13 13 13 13 12 12 11 11 11 11 10 10 10 10 10 10 10 9 9 9 8 7 7 5 5 5 6 8 10 13 13 13 14 14
9 7 5 7 10 13 14 13 13 12 12 12 12 11 11 11 11 11 11 11 10 10 10 10 10 10 10 9 9 8 8 7 4 3 5 5 10 12 13 13 14 14 14
7 5 5 5 5 5 7 12 12 12 12 12 11 11 11 11 11 11 10 10 11 11 11 11 11 10 10 10 10 9 9 7 4 4 3 6 12 14 14 14 14 14 14
7 4 4 4 4 4 4 7 9 10 10 10 9 11 9 4 4 5 8 10 11 11 11 12 12 11 11 10 11 10 9 3 4 3 3 7 12 14 15 15 15 15 15
7 5 3 3 3 3 3 2 1 2 2 3 2 3 2 2 3 5 5 11 12 12 12 13 13 12 9 5 8 10 4 6 5 4 5 10 12 15 16 16 17 17 16
5 5 4 3 3 2 1 1 1 0 0 1 2 2 2 2 2 3 2 4 5 8 6 8 8 6 5 4 5 5 5 5 4 5 6 12 13 15 17 17 17 18 18
4 3 3 3 3 2 1 1 1 1 1 2 2 3 2 2 2 2 2 3 3 3 4 4 4 5 6 7 7 7 7 6 5 5 6 14 14 16 17 18 18 19 19
4 3 3 2 2 2 1 1 1 1 1 2 2 2 3 3 3 3 2 2 3 3 4 4 4 5 6 7 7 9 9 9 8 7 6 14 15 16 18 19 20 20 20
3 3 3 2 2 2 2 1 1 1 1 1 2 2 2 2 3 2 2 2 3 3 3 4 5 5 5 5 7 9 9 9 8 9 8 10 15 15 16 18 20 20 20
3 2 3 3 3 3 2 1 1 0 1 0 1 1 1 2 3 2 2 3 3 3 3 3 4 4 4 5 7 9 8 9 8 9 9 7 8 13 16 16 18 19 20
4 3 3 3 4 3 2 2 1 1 1 0 1 0 0 1 1 2 2 3 3 2 2 3 3 3 4 4 5 6 7 6 9 10 9 8 7 7 11 16 17 18 20
3 3 4 4 4 4 3 2 2 1 1 1 1 1 0 1 1 1 1 2 2 2 2 3 2 2 3 4 5 6 5 6 8 9 10 10 9 8 7 11 16 17 20
2 3 3 3 3 3 3 2 1 1 1 1 1 0 1 1 1 0 1 2 1 1 2 2 2 2 2 3 5 5 5 6 7 8 9 8 8 10 9 9 8 11 18
1 2 2 2 2 2 2 1 1 0 0 0 0 0 0 0 0 0 1 1 1 1 2 2 2 2 2 2 2 3 4 5 7 7 7 7 8 9 9 9 7 7 8
1 1 2 1 1 1 1 1 1 1 1 1 1 1 1 1 1 1 1 1 1 1 2 2 1 1 1 1 2 1 2 2 4 6 5 6 7 7 9 10 9 9 7
2 2 1 1 1 1 1 1 1 2 2 1 2 2 2 2 2 2 2 2 2 2 2 2 2 2 2 2 2 2 2 3 2 2 4 5 5 6 7 7 9 10 10
2 1 1 1 1 1 1 1 1 1 1 2 2 2 3 3 3 3 2 2 2 2 3 3 2 2 3 2 2 2 3 2 2 2 2 2 5 6 7 7 8 9 10
1 1 1 0 1 1 0 1 1 1 2 2 2 3 3 3 3 3 3 2 3 3 3 3 2 3 3 3 2 2 2 2 2 2 3 2 2 3 5 6 6 6 8
0 0 1 1 1 2 1 0 1 3 3 3 3 3 3 3 3 4 3 3 3 3 4 4 3 4 3 3 3 2 2 2 2 2 3 3 3 2 3 4 5 5 6
Wind_Direction
157 157 157 151 145 140 136 133 131 129 129 131 133 136 140 143 145 147 149 149 148 145 140 133 127 124 124 124 123 123 123 122 122 123 122 121 120 119 118 116 115 115 117
147 155 157 154 148 143 140 138 136 135 135 136 137 139 143 146 148 150 151 151 150 148 142 138 134 131 129 128 127 127 127 128 129 127 125 124 123 121 120 119 119 123 122
145 153 156 155 151 147 144 143 142 141 141 141 142 144 146 149 151 152 153 154 153 150 146 144 140 137 135 133 132 132 133 133 130 127 121 121 127 127 126 126 126 125 125
146 150 155 157 154 151 148 147 147 147 147 147 148 149 151 153 155 156 157 157 156 154 152 150 146 143 140 139 138 138 137 135 131 125 115 126 135 134 133 133 132 130 129
143 145 159 159 158 154 152 152 152 153 153 154 154 156 157 158 160 161 161 162 161 160 159 157 153 149 147 146 145 144 143 140 135 125 120 121 130 143 140 138 139 136 134
137 141 161 159 160 158 157 157 158 159 160 161 162 164 165 165 166 167 168 168 168 167 166 164 161 157 156 155 153 153 153 152 135 130 131 132 141 152 149 147 144 142 140
138 142 160 161 163 163 162 163 165 166 167 168 170 173 174 175 175 176 176 176 176 175 173 172 171 168 167 165 164 164 165 163 138 148 152 156 163 164 160 157 153 149 147
142 142 154 163 165 167 168 170 172 174 175 177 179 181 183 185 185 185 186 188 188 186 184 183 183 181 179 177 178 178 179 179 162 169 172 175 179 177 172 166 161 159 155
137 134 140 155 165 171 175 177 180 182 185 187 188 190 192 195 197 198 198 200 200 198 197 196 197 195 191 190 191 193 196 198 159 173 188 184 189 187 183 176 171 168 164
127 125 130 138 147 161 175 184 187 191 193 195 197 199 201 205 207 210 207 213 213 210 210 209 209 208 205 202 203 205 209 209 181 192 195 195 198 195 192 185 182 178 174
142 131 126 132 137 144 166 192 192 198 200 202 205 207 208 212 216 220 219 223 225 224 223 223 220 217 216 214 213 213 215 202 191 203 204 206 205 204 200 193 189 187 184
159 157 133 128 131 145 183 183 179 197 200 200 196 213 200 191 218 227 236 236 236 235 233 232 230 227 223 219 222 220 208 197 200 210 215 215 213 212 208 201 196 193 191
152 160 158 145 142 147 151 104 107 65 123 206 206 214 199 190 217 232 230 250 250 248 242 240 236 226 218 214 221 223 214 205 206 213 220 220 219 218 215 209 203 199 196
130 140 143 143 137 147 141 140 134 211 228 225 223 214 204 212 227 233 232 234 240 242 240 238 233 225 222 220 222 228 229 224 216 213 222 225 223 221 219 215 209 204 200
132 136 136 139 147 147 146 165 145 263 270 263 252 228 212 215 233 235 245 241 248 247 239 237 235 231 229 230 229 230 232 231 227 220 221 228 225 223 221 219 213 210 206
139 137 127 146 146 107 118 130 111 152 243 255 255 239 222 221 234 234 247 247 247 249 251 247 238 232 231 230 238 238 237 232 231 227 222 228 229 224 222 221 217 214 211
124 119 124 128 98 100 110 130 127 135 250 244 291 316 226 205 217 214 226 232 245 247 245 241 244 236 232 230 237 240 241 236 232 231 227 222 225 226 223 221 219 215 213
114 116 115 122 111 108 110 95 90 98 94 64 48 0 337 253 218 214 227 241 246 250 250 246 236 236 235 235 239 243 242 238 235 233 227 222 217 219 222 221 219 217 214
126 127 119 123 127 127 117 105 98 96 80 59 49 25 334 287 246 222 244 266 266 269 263 260 240 220 234 243 247 246 242 241 240 236 229 223 218 215 215 221 220 218 217
112 117 116 117 112 111 104 95 83 63 42 47 51 0 341 323 296 247 264 279 274 262 262 249 250 241 234 244 255 254 243 238 236 233 230 226 221 218 215 218 218 221 220
111 113 123 128 129 121 113 119 117 153 272 317 298 340 343 326 305 229 265 279 268 250 260 253 232 247 241 229 245 265 262 247 241 235 228 225 225 222 215 213 212 214 218
199 147 139 147 155 141 133 148 160 167 243 258 288 301 290 291 286 263 247 260 263 261 278 263 208 223 249 217 214 256 286 290 257 235 223 223 227 221 219 216 210 210 213
223 202 173 192 186 162 138 96 65 40 7 344 320 309 302 301 295 285 266 257 260 246 263 268 225 204 231 247 213 203 227 251 290 274 230 223 221 221 223 217 215 213 211
235 206 183 201 196 197 155 143 151 182 240 252 264 282 300 299 295 289 281 269 259 250 255 261 240 218 213 236 235 224 230 228 246 291 289 235 224 224 224 222 219 212 210
208 193 199 117 343 336 56 174 193 239 247 271 285 294 299 302 298 293 282 268 261 254 253 252 241 229 219 221 216 224 234 240 234 240 273 284 258 233 227 224 216 211 210
145 124 82 52 339 339 337 289 230 249 262 281 288 289 291 294 294 292 286 270 263 255 250 248 238 231 228 229 224 216 215 215 218 221 249 268 264 251 233 224 219 215 211